Location: Albany
(35.0170°S, 117.8920°E)
Time: 17:24:32
(UTC+08:00)

Transit 2A - Pass Details

Date: 25 January 2021
Orbit: 601 x 958 km, 66.7° (Epoch: 02 March)

Event Time Altitude Azimuth Distance (km) Brightness Sun altitude
Rises 13:59:46 0° 21° (NNE) 2,922 9.1 62.8°
Reaches altitude 10° 14:03:00 10° 46° (NE) 2,080 8.3 62.2°
Maximum altitude 14:05:24 14° 78° (ENE) 1,877 8.0 61.8°
Drops below altitude 10° 14:07:55 10° 108° (ESE) 2,197 8.2 61.3°
Sets 14:11:29 0° 132° (SE) 3,212 8.9 60.7°
